Location: Corralito
(10.2667°N, 66.9500°W)
Time: 03:57:19
(UTC+00:00)

Haruka - Pass Details

Date: 05 December 2023
Orbit: 529 x 21178 km, 31.2° (Epoch: 21 February)

Event Time Altitude Azimuth Distance (km) Brightness Sun altitude
Rises 18:00:55 0° 305° (NW) 6,080 7.6 48.8°
Reaches altitude 10° 18:03:27 10° 309° (NW) 5,774 7.6 48.4°
Maximum altitude 18:31:30 70° 38° (NE) 9,015 8.8 43.8°
Drops below altitude 10° 22:56:23 10° 133° (SE) 15,939 9.4 -12.6°
Sets 23:09:03 0° 130° (SE) 14,634 9.2 -15.5°
